This demonstration page uses our WeatherBlox Daily Observations layout. Learn more.

Left ArrowRight Arrow

Hourly Observations for January 16, 2022

Temp ( °F °C ) Dew Point ( °F °C ) Humidity (%) Winds ( mph kmh ) Pressure ( in mb ) Visibility ( mi km ) Precip ( " mm )
12:53 am 00:53 Cloudy with Light Rain 40 4.4 37 2.8 89 89 ENE 17 28 29.92 1013 8 13 0.10 2.54
1:53 am 01:53 Cloudy with Light Rain 39 3.9 36 2.2 89 89 ENE 17 28 29.87 1011 8 13 0.08 2.03
2:53 am 02:53 Cloudy with Light Rain 38 3.3 36 2.2 93 93 ENE 20 31 29.84 1010 7 11 0.04 1.02
3:53 am 03:53 Cloudy with Rain 38 3.3 35 1.7 89 89 E 17 28 29.76 1008 5 8 0.07 1.78
4:15 am 04:15 Cloudy with Light Rain 37 2.8 35 1.7 93 93 ENE 20 31 29.75 1008 9 14 0.02 0.51
4:30 am 04:30 Cloudy with Light Rain 37 2.8 35 1.7 93 93 ENE 25 41 29.74 1007 10 16 0.03 0.76
4:51 am 04:51 Cloudy with Light Rain 37 3 34 1 87 87 ENE 21 33 29.75 1008 7 11 0.04 1.02
4:53 am 04:53 Cloudy with Light Rain 37 2.8 34 1.1 89 89 E 21 33 29.72 1007 7 11 0.05 1.27
5:53 am 05:53 Cloudy with Light Rain 37 2.8 34 1.1 89 89 E 25 41 29.62 1003 10 16 0.02 0.51
6:53 am 06:53 Cloudy with Light Rain 36 2.2 33 0.6 89 89 E 21 33 29.58 1002 8 13 0.00 0.00
7:53 am 07:53 Cloudy with Light Rain 36 2.2 33 0.6 89 89 E 21 33 29.53 1000 5 8 0.01 0.25
8:53 am 08:53 Cloudy with Rain 36 2.2 33 0.6 89 89 ENE 22 35 29.52 1000 3 5 0.04 1.02
9:53 am 09:53 Cloudy with Light Rain 36 2.2 34 1.1 93 93 E 12 19 29.57 1001 4 6 0.08 2.03
10:50 am 10:50 Cloudy with Light Rain 36 2 34 1 93 93 E 12 19 29.60 1002 5 8 0.02 0.51
10:53 am 10:53 Cloudy with Light Rain 35 1.7 33 0.6 93 93 E 13 20 29.57 1001 5 8 0.02 0.51
11:41 am 11:41 Cloudy with Light Snow 35 1.7 33 0.6 93 93 E 14 22 29.59 1002 6 10 0.01 0.25
11:53 am 11:53 Cloudy with Light Snow 35 1.7 33 0.6 93 93 E 12 19 29.54 1001 5 8 0.01 0.25
12:37 pm 12:37 Cloudy with Light Snow 35 1.7 33 0.6 93 93 E 13 20 29.58 1002 4 6 0.01 0.25
12:46 pm 12:46 Cloudy with Light Rain 35 1.7 33 0.6 93 93 E 7 11 29.58 1002 6 10 0.01 0.25
12:53 pm 12:53 Cloudy with Light Snow 34 1.1 33 0.6 97 97 SE 7 11 29.54 1001 3 4 0.02 0.51
1:06 pm 13:06 Cloudy with Light Rain 35 1.7 34 1.1 96 96 S 5 7 29.58 1002 6 10 0.00 0.00
1:13 pm 13:13 Cloudy with Light Rain 35 1.7 34 1.1 96 96 SSW 6 9 29.58 1002 6 10 0.00 0.00
1:23 pm 13:23 Cloudy with Light Rain 35 1.7 33 0.6 93 93 S 8 13 29.58 1002 6 10 0.00 0.00
1:39 pm 13:39 Cloudy 35 1.7 32 0 89 89 S 9 15 29.57 1001 10 16 0.00 0.00
1:53 pm 13:53 Cloudy 35 1.7 32 0 89 89 VRB 6 9 29.54 1000 10 16 0.00 0.00
2:26 pm 14:26 Cloudy with Light Snow 34 1.1 32 0 92 92 S 5 7 29.57 1001 3 4 0.00 0.00
2:33 pm 14:33 Cloudy with Light Snow 34 1.1 32 0 92 92 SSW 8 13 29.57 1001 2 3 0.01 0.25
2:45 pm 14:45 Cloudy with Light Snow 34 1.1 32 0 92 92 SW 6 9 29.57 1001 2 3 0.01 0.25
2:53 pm 14:53 Cloudy with Light Snow 34 1.1 32 0 92 92 SW 6 9 29.54 1000 2 2 0.01 0.25
3:03 pm 15:03 Cloudy with Light Snow 34 1.1 32 0 92 92 SW 7 11 29.57 1001 2 3 0.00 0.00
3:15 pm 15:15 Cloudy with Light Snow 34 1.1 32 0 92 92 VRB 7 11 29.57 1001 3 5 0.00 0.00
3:53 pm 15:53 Cloudy 34 1.1 32 0 92 92 SSW 8 13 29.54 1001 9 14 0.01 0.25
4:00 pm 16:00 Cloudy 34 1.1 32 0 92 92 SW 7 11 29.58 1002 10 16 0.00 0.00
4:53 pm 16:53 Cloudy 35 1.7 32 0 89 89 SW 8 13 29.56 1001 10 16 0.00 0.00
5:37 pm 17:37 Cloudy with Light Rain 35 1.7 34 1.1 96 96 WSW 8 13 29.62 1003 10 16 0.00 0.00
5:53 pm 17:53 Cloudy with Light Rain 35 1.7 33 0.6 93 93 W 10 17 29.60 1003 10 16 0.01 0.25
5:56 pm 17:56 Cloudy with Light Rain 35 1.7 33 0.6 93 93 W 12 19 29.64 1004 2 3 0.00 0.00
6:04 pm 18:04 Cloudy with Light Snow 35 1.7 33 0.6 93 93 W 9 15 29.64 1004 2 3 0.00 0.00
6:53 pm 18:53 Cloudy 34 1.1 32 0 92 92 W 8 13 29.62 1003 10 16 0.00 0.00
7:53 pm 19:53 Cloudy 35 1.7 33 0.6 93 93 WSW 6 9 29.63 1003 10 16 0.00 0.00
8:19 pm 20:19 Cloudy 35 1.7 33 0.6 93 93 WSW 7 11 29.66 1004 10 16 0.00 0.00
8:42 pm 20:42 Cloudy 36 2.2 33 0.6 89 89 W 10 17 29.67 1005 10 16 0.00 0.00
8:53 pm 20:53 Cloudy 36 2.2 34 1.1 93 93 W 9 15 29.65 1004 10 16 0.00 0.00
9:00 pm 21:00 Cloudy 36 2.2 33 0.6 89 89 W 13 20 29.68 1005 10 16 0.00 0.00
9:39 pm 21:39 Cloudy 37 2.8 33 0.6 86 86 W 18 30 29.71 1006 10 16 0.00 0.00
9:53 pm 21:53 Cloudy 37 2.8 33 0.6 86 86 WNW 14 22 29.69 1005 10 16 0.00 0.00
10:26 pm 22:26 Cloudy with Light Rain 37 2.8 33 0.6 86 86 WNW 23 37 29.73 1007 10 16 0.00 0.00
10:53 pm 22:53 Cloudy 36 2.2 32 0 86 86 WNW 15 24 29.70 1006 10 16 0.00 0.00
11:24 pm 23:24 Cloudy 36 2.2 31 -0.6 82 82 WNW 13 20 29.74 1007 10 16 0.00 0.00
11:53 pm 23:53 Cloudy 36 2.2 31 -0.6 82 82 W 14 22 29.72 1006 10 16 0.00 0.00

Powered by AerisWeather